Regional Weather Roundup
Issued by NWS Green Bay, WI

Home | Current Version | Previous Version | Graphics & Text | Print | Product List | Glossary Off
Versions: 1 2 3 4 5 6 7 8 9 10 11 12 13 14 15 16 17 18 19 20 21 22 23 24 25 26 27 28 29 30 31 32 33 34 35 36 37 38 39 40 41 42 43 44 45 46 47 48 49 50

000
ASUS43 KGRB 020611
RWRGRB

NORTH-CENTRAL AND NORTHEAST WISCONSIN REGIONAL WEATHER ROUNDUP
NATIONAL WEATHER SERVICE GREEN BAY WI
100 AM CDT TUE JUN 02 2015

WIZ005-009-010>012-018-019-020700-
NORTH CENTRAL WISCONSIN

CITY           SKY/WX    TMP DP  RH WIND       PRES   REMARKS
IRONWOOD       CLEAR     54  36  50 S8        30.14S
MANITOWISH WTR CLEAR     48  37  67 S7        30.19R
ARBOR VITAE    CLEAR     52  39  62 SE5       30.20R
EAGLE RIVER    CLEAR     41  34  75 CALM      30.20S
LAND O LAKES   CLEAR     40  38  93 CALM      30.21S
RHINELANDER    CLEAR     41  36  82 CALM      30.20F
PHILLIPS       CLEAR     46  39  76 E3        30.18R
ANTIGO         CLEAR     43  38  83 CALM      30.20F
TOMAHAWK       CLEAR     43  37  80 CALM      30.20F
MERRILL        CLEAR     38  38  97 CALM      30.21S
$$

WIZ013-073-020700-
NORTHEAST WISCONSIN

CITY           SKY/WX    TMP DP  RH WIND       PRES   REMARKS
IRON MOUNTAIN  CLEAR     39  32  76 CALM      30.19F
MARINETTE      CLEAR     41  37  87 CALM      30.20F
OCONTO         CLEAR     37  37 100 CALM      30.20F
$$

WIZ017-030-035>037-045-020700-
CENTRAL WISCONSIN

CITY           SKY/WX    TMP DP  RH WIND       PRES   REMARKS
MEDFORD        CLEAR     47  38  73 SE3       30.19R
WAUSAU         CLEAR     47  39  74 E3        30.19S
MOSINEE        CLEAR     43  39  87 E5        30.20S
MARSHFIELD     CLEAR     50  36  58 SE3       30.18F
WISC RAPIDS    CLEAR     48  36  63 SE6       30.20S
STEVENS POINT  CLEAR     41  38  89 CALM      30.20S
WAUPACA        CLEAR     46  44  95 CALM      30.20F
SHAWANO        CLEAR     45  40  84 CALM      30.21F
CLINTONVILLE   CLEAR     43  41  93 CALM      30.21S
$$

WIZ038-039-048-051-020700-
FOX VALLEY

CITY           SKY/WX    TMP DP  RH WIND       PRES   REMARKS
NWS GREEN BAY  CLEAR     44  42  93 CALM      30.20F
APPLETON       CLEAR     50  32  50 E3        30.21F
OSHKOSH        CLEAR     47  40  76 CALM      30.20F
FOND DU LAC    CLEAR     43  39  86 CALM      30.20F
$$

WIZ022-050-052-020700-
EAST CENTRAL WISCONSIN

CITY           SKY/WX    TMP DP  RH WIND       PRES   REMARKS
STURGEON BAY   CLEAR     48  30  49 E5        30.23S
MANITOWOC      CLEAR     43  40  89 CALM      30.21F
SHEBOYGAN      CLEAR     40  37  89 CALM      30.20F
$$

LMZ563-521-522-541>543-020700-
LAKESHORE

STATION/POSITION TIME  TEMP    WIND        PRES    VSBY  WAVE
                       AIR SEA DIR/SP/G                  HT/PER
                 (UTC) (F)     (DEG/KT/KT) (MB)    (MI)  (FT/S)
SHEBOYGAN LKSHOR 0600   50     350/  5/  6 1023.2F
KEWAUNEE LKSHORE 0500   44     300/  2/  3 1022.4F
ALGOMA MARINA    0539             CALM       N/A
NORTHPORT PIER   0500   48      CALM  /  1 1023.0F
N MID LAKE BUOY  0550   40 37   70/  4/  6 1023.6F         0
SISTER BAY LKSHO 0518   44        CALM       N/A
CHAMBERS ISLAND  0500   42      CALM  /  1 1023.4F
MENOMINEE LKSHOR 0500   52     350/  4/  4 1023.7F
$$



USA.gov is the U.S. government's official web portal to all federal, state and local government web resources and services.